Location: Izdebno
(52.6670°N, 16.2170°E)
Time: 06:03:20
(UTC+02:00)

Vanguard 1 - Pass Details

Date: 27 February 2024
Orbit: 653 x 3825 km, 34.2° (Epoch: 22 April)

Event Time Altitude Azimuth Distance (km) Brightness Sun altitude
Rises 18:46:30 0° 217° (SW) 5,093 14.2 -12.5°
Reaches altitude 10° 18:49:51 10° 207° (SSW) 4,494 13.7 -13.0°
Maximum altitude 19:01:00 32° 150° (SSE) 4,097 12.9 -14.7°
Enters shadow 19:12:32 18° 107° (ESE) 5,768 13.3 -16.4°
